Regional Weather Roundup
Issued by NWS Charleston, SC

Current Version | Previous Version | Graphics & Text | Print | Product List | Glossary On
Versions: 1 2 3 4 5 6 7 8 9 10 11 12 13 14 15 16 17 18 19 20 21 22 23 24 25 26 27 28 29 30 31 32 33 34 35 36 37 38 39 40 41 42 43 44 45 46 47 48 49 50
000 ASUS42 KCHS 291125 RWRCHS REGIONAL WEATHER ROUNDUP NATIONAL WEATHER SERVICE CHARLESTON SC 700 AM EDT TUE JUL 29 2014 NOTE: "FAIR" INDICATES FEW OR NO CLOUDS BELOW 12,000 FEET WITH NO SIGNIFICANT WEATHER AND/OR OBSTRUCTIONS TO VISIBILITY. NOT ALL STATIONS ARE QUALITY CONTROLLED BY THE NATIONAL WEATHER SERVICE. USE DATA WITH CAUTION...ESPECIALLY DEWPOINT OBSERVATIONS. SCZ027-030-031-034>040-042>050-291200- ...SOUTH CAROLINA... CITY SKY/WX TMP DP RH WIND PRES REMARKS N CHARLESTON PTCLDY 74 62 66 N8 29.89R WATERFRONT PRK N/A 77 N/A N/A N12G18 N/A FORT JOHNSON NOT AVBL MOUNT PLEASANT FAIR 72 64 78 N3 29.89R JOHNS ISLAND MOSUNNY 75 63 64 CALM 29.89R PINOPOLIS N/A 75 64 69 NE14 29.80S MONCKS CORNER N/A 75 66 73 N6 29.90R SUMMERVILLE FAIR 68 66 94 CALM 29.91R BEAUFORT MCAS PTCLDY 73 65 75 N3 29.89R BEAUFORT ARPT FAIR 73 66 78 N7 29.89R HILTON HEAD IS CLEAR 77 66 69 N7 29.90R GEORGETOWN NOT AVBL WALTERBORO SUNNY 70 68 94 NW3 29.92R ORANGEBURG CLEAR 71 59 65 NE6 29.93R BARNWELL FAIR 66 61 82 N6 29.94R AIKEN FAIR 68 63 83 N5 29.98R MANNING FAIR 70 64 83 N5 29.92R KINGSTREE NOT AVBL COLUMBIA PTCLDY 72 59 63 CALM 29.93R SUMTER MOCLDY 69 59 69 N6 29.92R FLORENCE MOCLDY 69 61 75 N6 29.92R MYRTLE BEACH PTCLDY 72 63 73 N8 29.89R N MYRTLE BEACH PTCLDY 70 65 84 N7 29.89R $$ GAZ063-065-086>088-099>101-113>116-118-119-134-136>141-150-291200- ...GEORGIA... CITY SKY/WX TMP DP RH WIND PRES REMARKS SAVANNAH ARPT PTCLDY 74 64 71 N5 29.90R HUNTER AAF PTCLDY 75 65 72 NW6 29.88R FORT STEWART MOCLDY 73 67 81 VRB1 29.90R STATESBORO NOT AVBL SYLVANIA SUNNY 69 67 95 CALM 29.93R CLAXTON FAIR 70 70 100 CALM 29.92R THOMSON CLEAR 64 64 100 CALM 29.99S AUGUSTA-BUSH PTCLDY 65 61 87 CALM 29.93R AUGUSTA-DANIEL PTCLDY 71 60 68 N6 29.95R SWAINSBORO FAIR 70 70 100 N3 29.94S VIDALIA N/A 70 63 78 N6 29.93S ALMA NOT AVBL WAYCROSS CLEAR 75 73 94 NW3 29.91F JESUP FAIR 77 70 78 N3 29.90F BRUNSWICK PTCLDY 75 70 83 NW5 29.90S SAINT SIMONS CLEAR 76 69 79 NW7 29.88S $$ SCZ027-028-034-036>038-045-046-048>050-GAZ119-141-291200- ...LAKE AND SUPPLEMENTAL COASTAL OBSERVATIONS... STATION/POSITION TIME TEMP WIND PRES WAVE SWELL AIR SEA DIR/SP/G HT/PER HT/PER/DIR (UTC) (F) (DEG/KT/KT) (MB) (FT/S) (FT/S/D) UPR LAKE MARION NOT AVBL WINYAH BAY 1100 72 10/ 7 1012.0S LAKE MURRAY 1100 71 360/ 3/ 5 1013.2S ACE BASIN NERRS 1100 72 10/ 3 1012.0S FORT PULASKI 1100 74 310/ 7/ 9 1012.2R SAPELO ISLAND 1100 76 330/ 5 1012.0S $$ ANZ835-935-AMZ111-154-330-350-352-354-374-450-454-472-291200- ...C-MAN AND BUOY OBSERVATIONS... STATION/POSITION TIME TEMP WIND PRES WAVE SWELL AIR SEA DIR/SP/G HT/PER HT/PER/DIR (UTC) (F) (DEG/KT/KT) (MB) (FT/S) (FT/S/D) FOLLY BEACH CMAN 1100 77 10/ 13/ 14 1012.3R BUOY 41004 1100 82 84 40/ 14/ 17 1009.9R 4/ 6 2/ 8 BUOY 41008 1100 81 85 340/ 12/ 16 1011.4R 2/ 4 2/110/ 8 5E ST. MARYS GA 1100 85 N/A 2/ 3 FRYING PAN BUOY NOT AVBL BUOY 41025 1100 VRB 10/ 12 1010.7R 3/ 8 3/140/ 8 CAPE LOOKOUT NC 1100 75 20/ 9/ 12 1011.2R BUOY 41002 1016 74 81 330/ 14/ 17 1014.4R 6/ 7 5/240/ 7 BUOY 41010 1100 84 84 260/ 16/ 19 1012.9F 5/ 6 2/150/ 9 BUOY 41012 NOT AVBL ST AUGUSTINE FL 1100 79 270/ 5/ 7 1013.0R CAPERS NEARSHORE 1000 78 20/ 12/ 16 N/A FRIPP NEARSHORE NOT AVBL $$

USA.gov is the U.S. government's official web portal to all federal, state and local government web resources and services.